Location: *
(43.0409°N, 0.1694°E)
Time: 11:07:26
(UTC+00:00)

USA 229 - Pass Details

Date: 03 October 2023
Orbit: 905 x 1306 km, 63.4° (Epoch: 10 November)

Event Time Altitude Azimuth Distance (km) Brightness Sun altitude
Rises 04:07:35 0° 323° (NW) 3,996 6.5 -20.9°
Reaches altitude 10° 04:10:12 10° 323° (NW) 3,086 5.9 -20.4°
Maximum altitude 04:17:43 84° 236° (WSW) 1,252 3.9 -19.1°
Drops below altitude 10° 04:25:46 10° 149° (SSE) 3,293 6.5 -17.7°
Sets 04:28:38 0° 149° (SSE) 4,276 7.1 -17.2°
